Theta_e
282 281 281 280 280 281 280 281 281 281 280 280 280 280 280 280 280 279 278 278 279 279 278 278 278 278 278 278 277 277 278 277 278 277 277 278 278 278 277 277 277 277 277 276 276 276 276 276 277 277 278 278 278 278 278 279 279 279 279 280 280 281
282 282 281 281 282 282 282 282 281 281 281 281 280 280 279 279 279 280 279 279 279 279 278 277 277 277 276 276 276 276 276 276 277 277 277 278 278 277 277 276 276 277 277 277 277 276 276 276 276 277 277 277 277 277 277 278 278 278 278 278 279 280
283 283 283 283 282 282 281 280 280 280 280 279 279 278 278 277 277 277 277 276 276 276 276 276 276 276 276 275 276 276 276 276 277 276 276 276 276 276 276 276 276 276 276 276 276 276 276 276 276 277 276 276 276 276 276 276 277 277 277 277 278 278
281 281 281 281 280 279 279 279 279 279 278 278 277 277 277 276 277 276 277 276 275 275 275 275 276 275 275 275 275 275 275 275 276 276 276 275 276 275 275 275 275 275 275 275 275 275 275 276 276 276 276 276 276 276 277 277 276 276 276 276 276 277
282 282 283 282 281 280 280 279 278 279 278 278 277 277 277 276 277 276 276 276 275 276 275 275 275 274 274 275 274 275 275 275 276 276 276 276 276 275 275 275 275 275 275 275 275 275 275 275 275 275 275 275 275 275 275 276 275 275 275 275 275 276
282 281 281 280 280 280 280 279 279 278 278 278 278 277 278 277 277 277 276 276 276 275 275 276 274 275 274 275 274 274 274 275 275 275 275 275 275 275 275 275 275 275 274 274 274 274 274 274 274 274 274 274 274 274 275 275 275 275 275 275 275 276
280 280 281 281 280 280 280 280 279 279 279 278 278 278 278 278 277 276 276 275 276 275 275 275 275 275 275 275 275 275 274 274 274 274 274 274 274 274 274 274 274 274 274 274 274 274 274 274 274 274 274 274 274 274 274 274 274 274 275 275 275 277
280 280 280 280 280 280 280 280 279 279 279 278 278 279 278 277 277 276 276 275 275 275 274 275 275 275 275 275 275 274 274 274 274 274 274 274 274 274 274 274 274 274 274 274 274 274 274 274 274 274 274 274 274 274 274 274 274 274 274 275 275 275
279 280 280 280 280 279 279 280 279 279 278 278 278 278 278 278 277 276 276 275 274 274 275 275 275 275 275 275 274 274 274 274 274 274 274 274 274 274 274 274 274 274 274 274 274 274 274 274 274 273 273 273 273 273 273 274 274 274 275 275 276 276
279 279 280 279 279 278 278 279 280 279 279 279 278 278 277 278 277 276 275 275 274 274 275 275 275 275 275 274 274 274 274 274 274 274 274 273 273 273 273 273 273 273 273 273 273 273 273 273 273 273 273 273 273 274 274 275 275 275 275 275 276 276
279 279 279 278 278 278 278 278 279 278 278 278 278 278 278 277 276 276 275 275 275 275 275 275 275 275 274 274 274 273 273 273 273 273 272 272 272 272 272 272 272 272 272 272 272 272 272 272 272 272 273 273 274 275 275 275 275 274 274 274 275 275
279 279 278 277 278 278 278 278 278 278 278 278 278 277 278 277 276 276 275 275 274 274 274 274 274 274 273 273 273 272 272 271 271 271 270 270 270 270 270 270 270 270 270 270 270 271 271 271 271 273 276 277 275 275 274 274 274 274 274 274 274 274
278 277 277 277 277 278 278 278 278 278 278 278 278 278 278 277 276 275 274 274 274 274 274 273 273 273 272 272 271 269 269 270 269 268 268 268 268 268 269 269 269 269 269 269 269 268 269 269 270 274 275 277 277 275 274 273 273 273 273 273 273 272
277 277 277 277 277 277 278 278 278 278 278 278 278 278 277 276 275 274 273 273 273 272 272 272 271 270 269 268 267 267 266 266 266 266 267 267 267 267 267 267 267 267 268 268 267 267 267 268 271 273 274 276 276 276 274 273 272 272 272 272 272 272
278 277 278 277 278 278 278 279 278 278 279 279 279 276 275 274 274 272 272 271 271 270 270 269 268 267 266 266 266 265 265 265 266 265 265 265 265 266 266 266 266 266 266 266 266 265 266 266 270 272 274 275 275 276 275 272 272 271 271 271 271 271
278 278 278 278 279 279 279 278 279 279 278 277 275 275 274 273 272 271 270 269 269 269 269 267 265 266 265 265 265 265 265 264 264 264 264 265 265 264 264 264 264 264 264 265 264 264 265 265 268 272 273 274 274 275 274 271 271 271 270 270 270 269
278 277 277 277 278 278 278 277 277 277 274 274 274 273 273 271 270 269 269 268 268 267 265 266 265 264 264 264 264 263 263 263 263 264 264 263 263 263 263 263 262 263 263 263 263 263 263 264 269 272 273 273 274 274 274 271 270 269 269 268 268 268
278 278 278 279 278 278 277 278 276 275 274 272 273 271 270 269 268 268 267 267 266 265 266 265 263 263 262 264 263 262 263 262 262 262 262 262 262 262 262 262 262 262 262 262 262 262 262 263 269 270 271 272 273 274 270 269 268 267 267 267 268 268
278 278 277 276 276 276 276 275 274 274 272 271 269 269 268 267 266 267 267 266 265 264 264 264 263 262 262 262 262 261 261 262 261 261 261 261 261 261 261 261 261 261 261 261 261 261 261 262 265 269 271 272 273 271 268 268 267 267 266 266 267 267
276 276 276 275 275 274 273 272 273 272 271 269 267 267 266 266 266 266 264 264 263 264 264 263 261 261 261 260 259 260 261 260 260 260 260 260 260 260 260 260 260 260 261 260 260 261 260 261 265 269 270 271 272 271 268 267 267 266 266 266 267 268
276 275 274 274 272 271 270 270 270 271 269 267 267 266 265 265 265 264 264 264 264 263 262 261 261 260 259 259 260 259 259 259 259 260 259 259 259 259 260 260 259 259 259 260 260 263 262 261 263 267 269 270 271 269 268 268 267 266 266 266 266 267
274 272 273 273 272 268 268 268 269 267 267 266 265 265 263 265 264 264 263 263 262 262 260 260 260 259 258 259 259 258 258 259 258 258 259 259 259 259 259 259 259 258 259 259 260 260 260 260 260 262 268 270 271 272 269 268 267 265 266 266 266 266
276 275 274 272 269 268 267 268 268 267 265 265 265 263 264 264 263 262 262 262 261 260 260 259 258 258 258 257 258 259 258 258 259 258 258 257 258 258 258 258 258 258 258 259 259 259 260 260 260 261 268 270 271 272 271 267 267 267 266 266 266 266
272 270 269 269 268 267 266 267 267 265 265 264 263 263 263 262 262 261 259 259 259 259 257 256 256 257 257 257 257 257 257 257 257 257 257 257 257 257 257 257 257 257 258 258 259 259 259 261 263 262 266 269 270 271 272 269 268 269 268 267 267 268
271 271 269 268 266 266 266 265 265 263 262 263 262 263 262 262 261 260 259 259 258 257 256 255 255 256 255 256 256 256 256 256 256 256 256 256 256 256 256 256 257 257 257 257 258 258 259 259 260 265 264 268 271 272 273 273 271 273 271 269 268 268
270 269 267 266 265 264 264 265 264 262 262 263 263 262 260 259 258 258 257 257 256 255 255 255 255 255 255 255 255 255 255 255 255 255 256 256 256 256 256 256 256 256 256 256 257 258 259 259 260 263 267 267 271 272 273 273 274 274 271 270 269 270
269 268 265 265 263 262 260 261 263 261 260 261 262 260 258 257 256 255 255 254 254 253 254 253 253 253 253 254 254 254 255 255 254 255 255 255 255 255 255 255 255 255 255 256 257 258 259 260 261 261 264 269 271 272 273 273 274 274 274 271 270 270
266 266 265 263 261 261 260 259 261 260 259 261 260 259 257 255 253 254 253 252 252 253 252 253 254 254 254 254 255 255 255 255 255 255 255 255 255 255 255 255 255 255 256 257 258 259 261 262 263 264 265 267 268 269 271 272 273 273 274 274 272 274
266 265 264 263 261 260 259 258 258 258 259 259 259 258 255 252 253 254 253 253 253 253 252 252 253 254 254 253 254 255 255 255 255 255 255 255 254 254 254 255 256 256 257 258 260 261 262 263 264 265 266 267 267 267 268 269 269 271 272 270 269 271
267 265 264 264 262 260 259 258 258 257 257 257 258 255 253 254 254 253 253 252 251 253 252 253 256 256 255 255 254 254 254 254 255 254 255 254 255 255 255 256 257 258 259 259 260 262 264 265 265 266 266 267 267 268 269 269 270 269 269 269 269 269
265 264 263 263 261 259 258 256 256 255 256 258 254 253 253 254 254 254 251 251 252 252 254 254 254 254 254 254 254 254 255 255 255 255 256 257 257 257 257 257 258 260 261 262 264 264 264 265 265 266 270 270 273 271 270 270 270 270 271 272 275 273
264 262 261 261 260 258 258 256 255 254 257 255 254 253 252 253 253 251 251 252 251 252 252 252 253 251 253 253 253 253 254 258 263 262 260 260 265 268 269 269 266 267 267 267 267 267 266 265 267 272 273 273 274 274 275 274 275 275 274 275 276 274
260 259 259 259 258 257 257 256 255 254 254 256 255 254 253 252 253 252 252 251 252 253 253 253 253 253 253 253 254 253 254 254 256 262 265 266 267 268 269 270 271 271 271 269 267 268 271 272 272 272 273 273 274 274 274 274 274 274 275 275 271 269
259 260 259 258 257 257 255 255 254 254 254 254 254 254 253 252 253 253 252 252 252 254 255 253 254 254 254 253 254 254 253 253 253 255 260 264 265 267 268 269 270 270 270 270 269 268 266 269 271 272 272 272 273 273 273 274 274 274 273 272 272 266
260 259 257 257 256 255 254 254 254 254 253 253 252 252 252 251 251 252 251 252 253 253 254 254 254 254 253 253 253 253 253 253 253 253 254 257 263 265 266 267 268 268 268 269 269 270 270 270 270 271 271 272 272 273 273 273 272 271 270 270 265 263
257 256 256 255 254 254 253 254 254 254 253 252 252 252 252 252 252 252 251 252 253 253 253 253 253 253 253 253 254 253 253 253 253 253 254 254 255 256 260 263 264 265 266 267 268 269 269 269 270 270 271 272 272 272 271 270 265 267 268 266 261 261
256 255 255 255 254 253 253 254 254 252 252 253 251 251 250 250 252 250 253 255 255 252 253 253 254 254 253 253 253 253 254 254 255 255 255 254 253 254 254 255 257 261 265 264 265 267 268 268 269 270 271 271 270 269 269 266 258 257 258 259 259 260
255 254 254 254 253 253 254 255 254 253 251 250 249 249 250 251 252 252 253 253 254 253 254 254 253 254 253 253 253 254 255 255 255 254 254 254 254 254 254 254 255 257 261 265 266 266 267 268 269 270 270 268 267 267 266 257 256 256 257 258 258 258
Wind_Speed
6 6 5 4 4 3 3 3 3 3 3 3 4 4 3 3 2 2 2 2 3 3 4 4 4 4 4 4 5 5 5 5 5 5 4 4 6 7 8 8 7 6 6 4 5 4 4 4 4 4 5 5 7 7 8 7 7 7 8 7 6 7
6 6 6 5 4 3 2 2 2 2 1 2 2 2 2 2 3 3 4 3 3 2 2 2 2 3 4 4 4 4 3 2 3 4 5 5 5 5 5 6 6 7 8 7 7 7 7 6 4 4 5 4 4 5 6 7 7 8 8 9 7 6
6 6 5 4 3 3 3 3 3 3 2 2 2 4 2 3 2 3 3 3 3 3 3 2 2 1 1 2 1 3 2 3 3 3 3 4 5 4 5 5 5 6 6 7 7 8 9 9 10 8 7 7 7 6 5 5 5 6 7 7 10 7
5 4 4 4 4 4 4 4 3 3 4 4 3 2 3 4 3 4 3 2 3 3 3 2 1 1 1 2 2 4 3 4 4 3 4 4 4 3 4 4 4 4 4 5 6 6 6 6 7 8 8 9 11 11 7 8 8 8 8 6 8 8
6 6 6 6 6 6 5 4 4 5 5 4 4 4 4 4 4 4 4 4 4 3 2 1 1 2 3 4 3 4 4 4 4 4 4 5 4 4 4 4 5 5 5 5 5 5 5 5 6 5 5 6 7 9 10 9 10 10 11 11 11 9
5 5 6 6 6 6 7 6 5 5 5 5 5 5 6 5 5 5 4 4 3 2 2 1 1 2 2 3 2 3 3 3 4 4 4 4 4 5 4 4 4 4 5 5 6 5 5 6 5 5 4 5 6 8 9 9 9 9 10 10 11 12
8 8 8 8 7 7 6 7 6 5 6 5 6 7 7 6 5 5 4 4 4 2 1 1 0 1 1 1 1 2 2 3 3 3 4 4 4 4 4 4 3 4 4 6 6 7 6 6 6 6 6 5 5 7 8 8 8 9 10 10 11 10
6 6 8 8 8 8 7 6 5 5 6 7 6 7 6 7 5 5 5 4 4 3 1 1 1 1 1 1 2 3 3 3 3 4 4 4 5 5 4 5 5 5 7 6 6 6 6 6 5 6 7 7 7 7 8 8 9 9 10 10 11 10
10 10 9 9 8 7 6 7 7 7 7 7 6 6 7 7 6 5 5 4 4 3 2 1 1 0 1 2 3 3 3 4 4 4 5 4 4 6 7 6 6 6 6 7 7 7 7 7 6 7 7 6 6 8 9 10 10 10 10 10 11 11
9 9 10 8 7 6 6 7 8 9 8 8 7 6 6 5 5 5 5 4 3 3 2 1 1 1 2 2 3 3 3 3 4 4 4 4 5 6 6 7 8 7 6 7 7 7 7 8 7 6 6 7 8 9 9 10 10 11 11 10 11 11
11 11 8 8 6 8 7 7 7 6 6 6 7 6 8 6 5 5 4 4 3 2 2 2 2 2 2 1 1 2 3 3 3 3 4 4 5 5 5 6 6 9 9 8 7 8 7 7 8 6 7 10 11 9 11 11 12 12 12 12 11 11
10 8 7 7 8 8 7 7 7 8 8 8 8 7 7 5 5 5 4 4 3 2 1 1 1 1 2 2 3 3 3 3 4 4 4 4 4 4 5 5 6 7 8 10 10 8 8 8 6 10 19 17 12 12 11 11 11 11 11 12 13 13
6 5 7 8 8 9 9 8 8 8 8 8 8 8 6 6 5 4 4 4 3 3 2 2 1 1 2 2 3 3 4 6 5 5 6 5 6 6 6 6 7 6 7 8 9 10 9 8 8 19 19 20 22 16 13 12 13 13 13 10 12 11
7 8 8 8 8 8 8 9 8 7 9 9 8 7 4 5 4 5 4 4 3 3 3 2 2 2 2 3 3 3 4 4 5 5 6 6 8 8 6 7 6 7 7 8 8 8 8 9 13 19 20 21 22 20 15 14 12 13 14 14 13 13
9 9 8 6 8 8 10 10 7 9 10 10 7 3 4 5 6 6 5 3 3 3 3 2 2 1 2 2 3 3 4 4 5 5 6 7 6 6 6 8 8 8 7 8 10 10 9 8 14 18 21 21 22 22 20 14 14 14 15 15 16 16
5 6 8 9 9 10 9 7 9 10 5 4 4 6 5 7 5 6 5 3 3 3 3 2 2 2 2 3 4 4 5 5 6 5 4 5 6 6 7 6 7 7 7 8 9 10 10 9 14 20 21 22 23 23 21 14 15 15 16 16 15 15
6 5 5 7 9 7 5 6 7 5 3 4 6 5 7 5 6 5 4 4 3 3 2 3 2 2 3 3 4 4 5 5 6 6 6 6 6 8 8 8 9 7 6 7 8 10 11 9 18 21 23 24 24 24 21 15 14 14 14 14 14 15
9 9 10 8 6 6 6 8 5 6 5 4 7 6 5 6 5 5 3 4 3 2 2 3 3 3 3 4 4 4 6 5 5 7 7 6 6 5 6 7 5 8 8 7 8 10 12 10 18 22 23 25 24 26 16 13 14 14 14 14 14 14
7 7 4 2 3 4 5 4 5 6 6 6 5 5 5 5 4 4 4 3 2 3 3 3 3 3 4 4 5 5 5 6 6 5 4 7 7 7 7 7 7 7 8 9 8 10 12 10 14 21 23 24 26 20 12 13 12 12 14 15 14 14
3 2 3 3 0 0 1 4 6 7 7 6 5 5 5 4 4 3 3 3 2 3 3 4 2 3 4 4 4 5 5 4 4 4 4 6 8 9 7 7 8 7 6 8 10 8 12 13 15 22 24 25 24 21 14 12 11 13 13 14 14 13
4 3 3 3 4 1 3 4 6 7 6 5 4 4 4 4 4 3 3 3 3 3 2 2 2 2 3 4 4 4 5 5 5 5 4 5 6 8 7 7 8 8 7 7 9 14 15 13 15 21 23 25 24 19 12 11 10 11 13 13 13 14
5 3 4 6 5 4 4 5 5 5 5 4 3 4 3 3 4 3 4 4 3 2 1 2 2 3 3 5 5 4 4 4 5 5 5 6 5 8 7 7 8 9 9 7 9 9 9 12 13 14 25 24 24 24 15 11 11 12 14 13 12 13
6 7 8 6 7 6 5 6 6 5 4 4 4 3 3 4 4 4 4 3 2 2 2 2 2 4 4 4 5 5 4 4 6 6 6 7 7 7 8 8 8 9 9 7 8 8 9 9 13 14 23 24 24 25 21 12 12 12 13 13 13 11
4 3 4 5 7 6 6 6 7 5 5 4 4 3 4 4 4 4 2 1 0 1 2 3 4 3 4 4 4 6 6 4 5 6 7 6 7 9 10 8 8 9 9 8 7 8 9 11 17 15 20 24 25 24 27 16 12 14 14 14 12 11
7 7 7 6 5 5 4 6 6 5 4 5 4 4 4 4 4 2 1 0 1 1 3 3 4 5 4 5 4 5 7 5 5 6 6 7 8 9 10 8 8 8 10 9 7 7 8 10 11 19 18 23 25 27 26 27 22 27 18 14 13 11
5 5 4 5 4 4 4 7 7 5 5 5 4 5 4 3 2 2 1 1 1 2 3 4 4 4 4 5 5 5 6 7 6 6 6 7 7 8 9 7 7 8 9 10 11 8 7 9 9 14 21 21 26 27 28 27 28 28 18 16 14 13
10 7 6 4 4 3 4 3 8 6 6 3 5 4 4 3 2 2 1 2 3 4 4 4 4 4 5 5 5 5 6 7 5 7 5 5 7 7 8 8 6 7 9 10 11 11 9 9 9 10 14 23 26 28 28 28 29 28 29 20 14 15
5 7 8 5 4 4 3 4 6 7 4 4 4 4 4 4 3 1 2 3 3 5 4 4 5 5 5 6 5 5 6 6 6 7 7 6 7 7 7 8 7 7 8 10 10 11 11 11 10 11 11 13 17 18 24 29 29 29 30 28 23 30
7 8 9 9 5 5 4 4 3 4 4 5 5 4 4 4 3 3 3 4 4 4 4 4 5 5 5 5 5 5 5 5 6 7 7 6 7 7 7 8 7 8 8 10 11 12 12 11 10 11 12 11 11 11 14 16 16 23 25 19 15 19
9 9 9 10 8 5 5 4 4 4 4 4 5 4 4 4 4 4 4 5 4 4 4 5 6 6 5 5 5 5 5 6 6 7 8 7 7 7 8 7 8 9 10 10 10 12 11 11 9 9 9 10 10 12 11 11 11 10 10 12 12 13
9 9 9 7 6 6 5 5 4 4 4 4 4 5 4 4 4 4 4 4 4 5 4 5 5 5 5 6 5 6 6 7 7 8 9 9 8 9 9 8 8 10 10 9 10 10 8 10 10 10 15 19 23 20 17 13 12 12 11 15 26 20
8 8 8 6 6 7 6 5 4 3 3 3 4 4 5 4 4 4 5 4 4 5 4 4 5 4 5 6 6 6 7 10 16 12 9 7 13 19 20 18 11 10 10 8 7 7 10 9 12 24 29 27 27 28 30 28 29 28 23 26 32 22
6 7 7 7 6 6 6 5 4 3 3 4 4 5 5 4 4 4 4 4 4 5 4 4 5 5 5 5 6 6 7 7 8 15 20 19 17 18 19 19 22 23 22 14 11 11 21 25 27 27 26 27 26 27 28 27 28 29 28 28 20 14
9 10 9 6 7 6 5 4 3 4 4 4 4 4 5 5 5 5 4 4 4 4 4 4 4 5 5 5 5 6 6 7 9 9 11 14 14 15 17 19 20 19 16 17 17 15 11 17 23 25 25 26 26 26 27 26 27 27 26 26 24 12
6 4 5 6 5 4 4 4 4 3 3 4 4 4 5 5 5 5 4 4 4 4 5 4 4 4 5 5 6 5 5 6 6 10 13 11 13 17 16 15 13 11 12 18 20 21 20 19 20 24 24 25 25 25 24 25 26 24 24 23 11 8
5 5 5 5 5 4 3 4 4 3 4 4 4 4 5 5 5 5 4 4 4 4 4 4 4 5 5 5 5 5 6 6 6 7 7 10 13 16 16 10 6 9 14 17 19 20 19 20 22 23 24 24 24 24 23 22 16 20 19 14 9 9
7 5 5 5 4 4 4 6 4 4 4 4 4 4 4 4 5 4 5 7 5 4 4 4 5 5 5 5 5 5 6 6 6 5 6 7 8 9 10 13 16 17 17 16 15 17 20 21 22 22 22 23 22 21 22 20 11 12 11 9 5 7
6 5 4 3 3 4 4 7 3 3 4 4 4 4 4 5 4 4 3 3 4 4 4 4 5 5 5 5 6 6 6 5 5 7 6 6 6 7 9 11 10 11 18 24 20 20 22 23 22 21 22 20 20 20 21 11 10 10 10 10 9 9
Wind_Direction
187 186 188 196 187 181 168 143 93 75 69 68 90 99 98 93 79 89 76 84 86 75 60 53 44 40 41 32 32 27 30 19 13 15 358 355 5 12 9 7 5 2 359 359 348 343 337 332 332 333 338 341 338 336 333 331 336 332 324 319 325 315
189 187 186 186 188 184 178 127 83 105 90 85 69 49 48 65 81 88 82 75 102 119 104 57 69 48 54 40 41 36 33 5 5 3 9 360 0 9 6 5 358 354 350 350 348 343 343 343 344 344 338 333 325 316 323 317 327 326 323 316 314 311
190 188 186 183 181 171 143 140 165 175 125 137 129 134 139 108 115 111 141 138 128 105 99 91 89 84 101 83 60 51 27 14 11 11 358 357 1 4 360 358 351 345 344 340 343 343 340 341 341 347 345 343 335 333 318 313 316 310 305 304 307 310
188 189 187 177 164 178 173 190 167 152 171 187 177 161 155 146 178 150 161 147 146 148 168 177 172 137 73 59 38 29 17 8 7 357 2 10 336 2 345 342 337 335 329 333 328 329 329 328 332 336 343 338 336 331 334 329 323 315 308 302 297 298
188 187 185 183 185 188 190 186 182 185 191 190 188 164 192 175 182 182 171 165 158 166 176 129 62 40 42 34 12 15 0 358 351 356 3 347 341 343 344 335 334 330 327 324 319 317 320 321 323 328 329 323 322 320 321 323 322 319 317 317 307 302
180 178 188 190 194 194 196 193 195 193 188 191 178 184 192 202 196 193 178 170 167 163 91 67 28 48 34 33 2 5 341 340 337 337 346 329 330 330 326 331 319 323 325 318 316 317 315 320 319 317 311 306 310 310 307 308 307 305 304 301 304 308
187 192 190 193 197 199 196 195 193 187 195 186 186 196 194 197 199 186 188 174 171 179 140 151 118 77 20 16 5 354 336 333 326 330 329 326 327 322 322 318 317 313 317 319 316 316 316 315 314 311 307 304 297 293 294 293 292 290 289 289 290 293
187 191 197 198 199 196 194 192 186 192 191 196 192 192 194 207 193 197 178 184 169 189 178 173 99 73 11 5 5 1 351 346 353 347 342 342 334 332 329 325 333 331 322 322 315 311 311 312 311 304 304 305 299 290 285 284 283 283 281 283 282 282
202 200 199 201 198 193 190 186 192 193 195 204 208 203 196 199 192 195 186 186 182 176 181 150 119 80 15 7 0 359 3 3 356 356 348 342 338 332 331 333 330 329 322 318 319 318 318 319 313 311 308 305 296 291 290 289 285 280 280 278 278 277
204 203 205 200 200 194 192 193 190 192 196 204 210 211 209 204 190 195 194 181 179 175 140 122 117 57 19 6 9 5 4 3 357 354 339 340 337 333 333 332 330 324 324 317 319 318 321 317 317 315 316 310 305 301 296 293 293 292 289 285 281 279
208 207 201 200 193 197 198 193 200 201 210 215 215 207 215 199 186 196 191 182 162 128 98 48 29 33 16 7 12 18 12 359 347 336 334 327 326 327 327 327 328 325 322 320 318 323 323 320 320 325 324 318 312 309 305 303 299 297 295 291 284 278
210 202 194 196 198 198 196 199 202 205 206 217 219 214 220 168 199 187 183 164 141 102 84 66 35 13 5 18 10 18 359 349 340 332 331 328 324 326 324 329 330 322 320 322 323 325 325 320 320 321 320 318 316 314 310 303 297 295 294 294 294 291
211 198 198 204 199 200 199 203 208 208 215 221 217 216 207 178 186 178 158 141 134 133 115 104 71 45 33 20 13 359 356 345 340 337 334 335 337 333 335 332 326 328 325 322 321 323 323 320 320 319 319 317 316 313 307 302 299 297 291 285 288 291
208 205 207 207 207 204 205 211 214 206 219 220 219 215 171 171 163 148 135 139 141 136 115 110 98 67 37 21 4 347 340 335 337 337 335 334 335 335 335 331 329 328 324 320 318 315 315 315 317 317 315 314 313 311 307 303 300 300 297 297 296 296
211 208 210 210 211 210 216 210 205 213 219 218 216 144 156 163 146 135 134 145 130 114 107 99 84 69 36 6 348 333 336 340 337 339 338 333 329 326 329 328 327 322 325 320 318 315 312 308 314 313 311 311 311 309 307 299 296 294 294 296 298 298
222 217 214 213 217 216 220 204 209 222 216 193 149 161 162 144 134 132 139 131 118 111 105 88 63 41 9 352 347 345 341 343 337 332 326 320 328 327 322 322 319 319 320 320 315 309 309 306 311 311 312 311 310 308 305 297 296 293 292 294 296 297
224 226 230 233 229 228 214 218 215 202 162 163 159 163 150 140 134 133 141 128 121 110 91 77 59 27 357 349 345 343 339 335 329 332 331 330 326 326 321 322 319 316 315 313 310 306 305 306 310 312 312 310 309 307 305 299 297 295 293 293 293 291
215 212 221 225 217 224 206 216 185 171 182 158 155 149 139 135 127 133 131 117 115 99 79 61 37 7 352 345 341 339 331 330 329 325 327 321 315 307 308 303 304 306 308 307 306 303 299 302 310 309 309 307 307 307 305 301 296 293 291 291 291 292
204 218 217 229 209 218 215 185 162 159 147 147 146 132 129 123 123 135 128 120 115 91 64 50 23 354 345 341 335 327 323 324 321 319 323 311 308 307 306 301 301 303 303 304 302 300 297 297 305 304 305 306 306 307 299 296 294 293 293 290 291 290
223 249 195 228 173 36 137 148 152 149 147 143 135 126 118 114 132 135 118 115 103 73 63 42 24 348 333 329 320 312 308 309 301 298 307 299 306 300 295 298 298 293 294 296 297 295 296 296 300 303 304 304 304 301 297 294 286 287 289 291 287 288
198 190 151 152 174 138 112 129 138 138 141 140 130 123 124 127 139 130 123 111 89 74 59 38 14 337 318 310 299 299 298 299 294 295 298 284 284 285 293 293 291 291 287 282 285 294 295 293 297 300 301 300 300 300 291 287 284 283 286 289 290 288
121 133 163 185 183 141 138 133 123 128 138 140 128 123 140 150 137 128 105 86 75 59 37 17 352 318 304 293 294 290 284 290 296 291 292 288 281 287 288 286 285 288 287 284 284 284 282 287 289 293 297 298 297 298 296 288 288 288 287 281 276 283
179 187 191 177 154 154 147 133 127 138 144 144 133 159 152 134 115 91 81 78 53 22 357 346 316 294 288 280 284 289 290 289 289 295 290 290 288 282 284 283 284 284 283 281 277 279 280 276 285 287 293 294 296 297 298 289 282 281 281 280 277 268
158 130 134 159 161 159 151 140 142 149 152 146 172 166 130 112 100 92 85 72 40 322 308 290 287 276 275 283 287 292 285 277 277 282 287 284 286 287 284 286 286 285 285 281 276 274 277 279 283 287 289 292 293 294 294 294 283 283 282 281 273 273
180 188 174 164 163 155 155 140 147 157 155 172 188 139 122 110 106 105 114 121 235 265 269 271 270 274 275 277 273 277 282 284 284 279 277 282 284 282 286 287 288 289 291 290 282 275 275 276 275 281 284 287 291 294 296 296 295 292 289 283 280 275
180 166 156 158 157 152 152 150 152 162 167 187 136 129 113 111 110 116 129 207 254 270 275 265 268 268 269 269 276 274 279 284 278 277 272 275 277 285 287 286 289 291 292 298 297 286 276 273 272 272 278 284 290 298 300 297 293 293 288 285 282 283
180 166 161 166 156 148 146 146 149 158 178 178 136 135 134 132 131 138 200 243 259 264 261 272 267 267 266 265 264 273 274 278 274 280 267 267 277 276 282 286 284 286 292 293 292 293 287 276 267 267 268 281 292 296 296 294 293 292 291 289 282 274
150 162 171 173 172 155 148 142 145 161 196 147 143 139 142 142 145 178 221 240 250 252 260 270 273 265 261 262 255 252 257 264 273 272 279 271 270 269 272 282 284 282 283 283 286 288 289 283 279 279 279 279 281 282 286 288 287 288 287 285 283 284
165 181 180 184 188 168 158 146 140 146 136 150 147 146 142 147 166 203 224 239 246 258 254 256 265 270 264 260 258 252 255 258 263 266 270 266 269 270 265 270 277 280 276 280 286 289 287 285 286 288 288 286 288 284 281 281 276 276 279 278 274 276
185 188 185 192 182 172 163 160 164 156 146 149 147 142 139 166 185 204 225 234 235 248 247 250 260 263 269 261 258 267 268 259 253 259 259 258 259 266 270 264 267 271 275 273 275 281 285 290 288 283 286 285 279 281 282 276 280 284 273 275 272 266
190 190 186 187 167 169 168 178 177 161 156 162 152 145 158 191 206 212 226 235 237 247 245 243 251 259 264 273 262 251 248 260 263 261 265 248 235 238 251 257 242 243 246 253 275 287 268 288 291 288 299 300 305 307 304 300 296 293 290 292 297 296
180 175 182 178 166 169 174 185 190 182 173 167 163 158 176 197 204 213 233 234 235 244 249 258 258 258 262 265 276 277 271 251 266 265 258 261 266 267 269 275 277 282 287 283 268 276 293 294 295 303 306 307 306 306 307 309 309 307 305 307 311 315
168 163 173 175 165 170 176 186 190 184 196 181 185 175 190 186 199 215 230 230 237 237 243 251 262 264 264 265 271 273 282 292 275 278 279 276 278 281 283 286 287 291 293 293 297 299 299 300 303 305 307 310 311 311 311 309 308 310 315 321 323 318
176 181 180 163 165 171 178 198 208 194 203 197 195 184 187 192 192 215 225 224 237 249 258 259 260 269 268 272 269 274 286 290 303 297 284 286 290 293 294 292 292 293 296 301 305 307 302 304 306 311 314 315 314 313 312 315 318 319 322 323 323 314
169 148 144 150 157 166 185 211 232 204 215 200 195 180 191 199 198 213 229 229 242 247 255 263 263 266 266 273 278 279 277 289 295 306 315 311 307 307 301 297 295 299 307 314 313 312 311 314 317 318 319 317 316 317 322 323 325 327 326 326 329 327
128 132 135 146 160 174 192 227 236 212 219 204 192 186 199 206 209 212 215 228 232 241 249 253 257 260 265 261 268 269 277 272 277 286 292 311 322 329 328 322 288 298 317 317 316 317 321 323 323 324 322 324 327 330 329 332 336 328 328 332 325 322
127 135 150 155 165 178 206 237 238 213 212 205 193 194 203 212 218 220 235 242 243 230 244 250 257 260 263 264 263 268 271 274 273 277 294 303 307 312 310 312 317 318 324 326 324 325 327 328 328 329 332 336 338 337 339 345 337 331 331 332 321 309
134 152 152 156 169 190 223 248 232 204 207 208 192 191 209 214 218 223 235 237 243 245 245 253 250 255 255 257 263 255 258 270 285 289 285 286 289 288 295 301 303 303 314 322 328 328 331 334 335 338 345 346 344 343 351 344 333 329 325 323 319 315